Weather History for KMKT - April, 2012

Change the Weather History Date:

Sunday, April 8, 2012

  Actual Average Record
Temperature  
Mean Temperature 48 °F -  
Max Temperature 62 °F 50 °F 71 °F (2005)
Min Temperature 35 °F 32 °F 8 °F (1997)
Degree Days  
Heating Degree Days 16    
Moisture  
Dew Point 22 °F    
Average Humidity 36    
Maximum Humidity 60    
Minimum Humidity 16    
Precipitation  
Precipitation 0.00 in - - ()
Sea Level Pressure  
Sea Level Pressure 30.18 in    
Wind  
Wind Speed 11 mph (West)    
Max Wind Speed 23 mph    
Max Gust Speed 33 mph    
Visibility 10 miles    
Events      
Averages and records for this station are not official NWS values.
T = Trace of Precipitation, MM = Missing Value Source: NWS Daily Summary

Daily Weather History Graph

Daily Weather History Graph

Search for Another Location

Airport or City:

Trip Planner

Search our weather history database for the weather conditions in past years. The results will help you decide how hot, cold, wet, or windy it might be!

Date:

Astronomy

Apr. 08, 2012 Rise Set
Actual Time 6:43 AM CDT 7:52 PM CDT
Civil Twilight 6:13 AM CDT 8:21 PM CDT
Nautical Twilight 5:38 AM CDT 8:57 PM CDT
Astronomical Twilight 5:00 AM CDT 9:35 PM CDT
Moon 10:47 PM CDT (4/8) 7:34 AM CDT (4/8)
Length of Visible Light 14h 08m
Length of Day
13h 08m
Waning Gibbous, 95% of the Moon is Illuminated
Apr 8
Waning Gibbous
Apr 13
Last Quarter
Apr 21
New
Apr 29
First Quarter
May 5
Full

Hourly Weather History & Observations

Time (CDT) Temp. Windchill Dew Point Humidity Pressure Visibility Wind Dir Wind Speed Gust Speed Precip Events Conditions
12:15 AM 42.8 °F 37.0 °F 21.2 °F 42% 30.22 in 10.0 mi WSW 10.4 mph - N/A   Clear
12:55 AM 42.8 °F 38.0 °F 21.2 °F 42% 30.22 in 10.0 mi West 8.1 mph - N/A   Clear
1:15 AM 42.8 °F 38.0 °F 21.2 °F 42% 30.23 in 10.0 mi West 8.1 mph - N/A   Clear
1:35 AM 42.8 °F 38.0 °F 21.2 °F 42% 30.23 in 10.0 mi West 8.1 mph - N/A   Clear
1:55 AM 39.2 °F 33.6 °F 21.2 °F 49% 30.23 in 10.0 mi WSW 8.1 mph - N/A   Clear
2:15 AM 39.2 °F 33.6 °F 21.2 °F 49% 30.23 in 10.0 mi WSW 8.1 mph - N/A   Clear
2:35 AM 39.2 °F 33.6 °F 21.2 °F 49% 30.22 in 10.0 mi WSW 8.1 mph - N/A   Clear
2:55 AM 39.2 °F 33.6 °F 21.2 °F 49% 30.22 in 10.0 mi WSW 8.1 mph - N/A   Clear
3:15 AM 39.2 °F 34.2 °F 21.2 °F 49% 30.22 in 10.0 mi WSW 6.9 mph - N/A   Clear
3:35 AM 39.2 °F 33.6 °F 21.2 °F 49% 30.22 in 10.0 mi WSW 8.1 mph - N/A   Clear
3:55 AM 39.2 °F 33.6 °F 21.2 °F 49% 30.22 in 10.0 mi WSW 8.1 mph - N/A   Clear
4:15 AM 37.4 °F 32.1 °F 21.2 °F 52% 30.22 in 10.0 mi West 6.9 mph - N/A   Clear
4:35 AM 39.2 °F 34.2 °F 21.2 °F 49% 30.22 in 10.0 mi SW 6.9 mph - N/A   Clear
4:55 AM 37.4 °F 31.4 °F 21.2 °F 52% 30.22 in 10.0 mi SW 8.1 mph - N/A   Clear
5:15 AM 37.4 °F 31.4 °F 21.2 °F 52% 30.22 in 10.0 mi WSW 8.1 mph - N/A   Clear
5:55 AM 35.6 °F 28.6 °F 23.0 °F 60% 30.23 in 10.0 mi West 9.2 mph - N/A   Clear
6:15 AM 37.4 °F 31.4 °F 21.2 °F 52% 30.23 in 10.0 mi WSW 8.1 mph - N/A   Clear
6:35 AM 35.6 °F 29.9 °F 23.0 °F 60% 30.24 in 10.0 mi WSW 6.9 mph - N/A   Clear
6:55 AM 37.4 °F 30.3 °F 23.0 °F 56% 30.25 in 10.0 mi WSW 10.4 mph - N/A   Clear
7:15 AM 37.4 °F 29.3 °F 23.0 °F 56% 30.26 in 10.0 mi West 12.7 mph - N/A   Scattered Clouds
7:35 AM 39.2 °F 33.0 °F 24.8 °F 56% 30.26 in 10.0 mi WSW 9.2 mph - N/A   Overcast
7:55 AM 41.0 °F 33.9 °F 24.8 °F 53% 30.26 in 10.0 mi WSW 12.7 mph - N/A   Overcast
8:35 AM 42.8 °F 37.0 °F 24.8 °F 49% 30.25 in 10.0 mi WSW 10.4 mph - N/A   Mostly Cloudy
8:55 AM 44.6 °F 38.8 °F 26.6 °F 49% 30.25 in 10.0 mi WSW 11.5 mph - N/A   Mostly Cloudy
9:15 AM 46.4 °F 40.7 °F 26.6 °F 46% 30.25 in 10.0 mi WSW 12.7 mph - N/A   Overcast
9:35 AM 48.2 °F - 28.4 °F 46% 30.24 in 10.0 mi WSW 11.5 mph - N/A   Overcast
9:55 AM 50.0 °F - 26.6 °F 40% 30.24 in 10.0 mi West 15.0 mph - N/A   Overcast
10:15 AM 51.8 °F - 26.6 °F 38% 30.23 in 10.0 mi West 11.5 mph - N/A   Overcast
10:35 AM 51.8 °F - 24.8 °F 35% 30.23 in 10.0 mi West 12.7 mph 17.3 mph N/A   Overcast
10:55 AM 53.6 °F - 26.6 °F 35% 30.22 in 10.0 mi West 11.5 mph - N/A   Overcast
11:15 AM 53.6 °F - 26.6 °F 35% 30.22 in 10.0 mi WNW 17.3 mph 20.7 mph N/A   Overcast
11:35 AM 55.4 °F - 26.6 °F 33% 30.22 in 10.0 mi WNW 11.5 mph 17.3 mph N/A   Overcast
11:55 AM 55.4 °F - 26.6 °F 33% 30.22 in 10.0 mi WNW 16.1 mph 23.0 mph N/A   Overcast
12:15 PM 55.4 °F - 26.6 °F 33% 30.22 in 10.0 mi NW 12.7 mph 23.0 mph N/A   Overcast
12:35 PM 55.4 °F - 26.6 °F 33% 30.21 in 10.0 mi NW 16.1 mph 23.0 mph N/A   Overcast
12:55 PM 55.4 °F - 26.6 °F 33% 30.20 in 10.0 mi NW 12.7 mph 21.9 mph N/A   Overcast
1:15 PM 55.4 °F - 24.8 °F 31% 30.19 in 10.0 mi NW 15.0 mph 24.2 mph N/A   Overcast
1:35 PM 55.4 °F - 24.8 °F 31% 30.18 in 10.0 mi NW 12.7 mph 26.5 mph N/A   Mostly Cloudy
1:55 PM 55.4 °F - 24.8 °F 31% 30.18 in 10.0 mi NNW 20.7 mph 24.2 mph N/A   Mostly Cloudy
2:15 PM 57.2 °F - 26.6 °F 31% 30.17 in 10.0 mi NW 17.3 mph 21.9 mph N/A   Mostly Cloudy
2:35 PM 57.2 °F - 24.8 °F 29% 30.16 in 10.0 mi WNW 15.0 mph 24.2 mph N/A   Mostly Cloudy
2:55 PM 60.8 °F - 26.6 °F 27% 30.14 in 10.0 mi NW 15.0 mph 29.9 mph N/A   Scattered Clouds
3:15 PM 60.8 °F - 23.0 °F 23% 30.13 in 10.0 mi WNW 17.3 mph 33.4 mph N/A   Clear
3:55 PM 60.8 °F - 24.8 °F 25% 30.11 in 10.0 mi WNW 16.1 mph 25.3 mph N/A   Clear
4:15 PM 60.8 °F - 21.2 °F 22% 30.10 in 10.0 mi NW 23.0 mph 29.9 mph N/A   Clear
4:35 PM 62.6 °F - 17.6 °F 18% 30.09 in 10.0 mi NW 23.0 mph 29.9 mph N/A   Clear
4:55 PM 62.6 °F - 17.6 °F 18% 30.09 in 10.0 mi WNW 21.9 mph 32.2 mph N/A   Clear
5:15 PM 62.6 °F - 15.8 °F 16% 30.09 in 10.0 mi WNW 21.9 mph 28.8 mph N/A   Clear
5:35 PM 62.6 °F - 15.8 °F 16% 30.09 in 10.0 mi WNW 18.4 mph 26.5 mph N/A   Clear
5:55 PM 60.8 °F - 17.6 °F 19% 30.08 in 10.0 mi NW 19.6 mph 28.8 mph N/A   Clear
6:15 PM 60.8 °F - 17.6 °F 19% 30.08 in 10.0 mi NW 20.7 mph - N/A   Clear
6:35 PM 60.8 °F - 17.6 °F 19% 30.08 in 10.0 mi NW 17.3 mph 24.2 mph N/A   Clear
6:55 PM 60.8 °F - 15.8 °F 17% 30.08 in 10.0 mi NW 19.6 mph 27.6 mph N/A   Clear
7:15 PM 59.0 °F - 15.8 °F 19% 30.08 in 10.0 mi WNW 16.1 mph 26.5 mph N/A   Clear
7:35 PM 57.2 °F - 17.6 °F 21% 30.08 in 10.0 mi NW 12.7 mph 26.5 mph N/A   Clear
7:55 PM 55.4 °F - 17.6 °F 23% 30.08 in 10.0 mi NW 12.7 mph - N/A   Clear
8:15 PM 55.4 °F - 17.6 °F 23% 30.09 in 10.0 mi NW 10.4 mph - N/A   Clear
8:35 PM 53.6 °F - 17.6 °F 24% 30.09 in 10.0 mi NW 9.2 mph - N/A   Clear
8:55 PM 53.6 °F - 17.6 °F 24% 30.10 in 10.0 mi NW 9.2 mph - N/A   Clear
9:15 PM 51.8 °F - 17.6 °F 26% 30.10 in 10.0 mi NW 9.2 mph - N/A   Clear
9:35 PM 51.8 °F - 17.6 °F 26% 30.10 in 10.0 mi NW 8.1 mph - N/A   Clear
9:55 PM 50.0 °F - 17.6 °F 28% 30.10 in 10.0 mi NW 6.9 mph - N/A   Clear
10:15 PM 48.2 °F - 17.6 °F 30% 30.10 in 10.0 mi NW 8.1 mph - N/A   Clear
10:35 PM 48.2 °F - 17.6 °F 30% 30.11 in 10.0 mi WNW 6.9 mph - N/A   Clear
10:55 PM 48.2 °F - 17.6 °F 30% 30.10 in 10.0 mi NW 6.9 mph - N/A   Clear
11:15 PM 48.2 °F - 17.6 °F 30% 30.10 in 10.0 mi West 6.9 mph - N/A   Clear
11:35 PM 46.4 °F 42.9 °F 17.6 °F 32% 30.11 in 10.0 mi WNW 6.9 mph - N/A   Clear
11:55 PM 46.4 °F 43.5 °F 17.6 °F 32% 30.10 in 10.0 mi West 5.8 mph - N/A   Clear